This is the latest recevied weather packets stored in our database for station/object XE1E-15. If no packets are shown the sender has not sent any weather packets the latest 10 day(s).
| Time | Temp. | Humidity | Pressure | Rain* | Wind** | Luminosity | Snow |
|---|---|---|---|---|---|---|---|
| 1777414778 | 32.22° C | 19% | 1021.5 hPa | - | - | - | - |
| 1777413817 | 32.22° C | 19% | 1021.8 hPa | - | - | - | - |
| 1777412857 | 32.22° C | 18% | 1021.9 hPa | - | - | - | - |
| 1777411897 | 31.11° C | 19% | 1022.1 hPa | - | - | - | - |
| 1777410937 | 31.67° C | 18% | 1022.4 hPa | - | - | - | - |
| 1777409977 | 31.67° C | 18% | 1022.6 hPa | - | - | - | - |
| 1777409017 | 31.67° C | 19% | 1022.8 hPa | - | - | - | - |
| 1777408056 | 31.11° C | 18% | 1023 hPa | - | - | - | - |
| 1777407096 | 31.11° C | 19% | 1023.3 hPa | - | - | - | - |
| 1777406135 | 31.11° C | 19% | 1023.5 hPa | - | - | - | - |
| 1777404695 | 30.56° C | 19% | 1023.9 hPa | - | - | - | - |
| 1777403735 | 31.11° C | 22% | 1024.1 hPa | - | - | - | - |
| 1777402775 | 30.56° C | 23% | 1024.3 hPa | - | - | - | - |
| 1777401815 | 30.56° C | 24% | 1024.6 hPa | - | - | - | - |
| 1777400889 | 30° C | 24% | 1025 hPa | - | - | - | - |
| 1777400855 | 30° C | 24% | 1025 hPa | - | - | - | - |
| 1777399895 | 32.78° C | 26% | 1025.2 hPa | - | - | - | - |
| 1777398935 | 31.11° C | 26% | 1025.4 hPa | - | - | - | - |
| 1777397975 | 30.56° C | 26% | 1025.6 hPa | - | - | - | - |
| 1777397014 | 30° C | 28% | 1025.9 hPa | - | - | - | - |
| 1777396054 | 31.11° C | 28% | 1026 hPa | - | - | - | - |
| 1777395094 | 31.67° C | 29% | 1026.1 hPa | - | - | - | - |
| 1777394134 | 31.11° C | 28% | 1026.1 hPa | - | - | - | - |
| 1777393174 | 29.44° C | 33% | 1026.2 hPa | - | - | - | - |
| 1777392214 | 28.33° C | 33% | 1026.2 hPa | - | - | - | - |
* Rain since midnight (hover to see other rain measurements)
** Current wind speed in m/s (hover to see current wind gust speed)